Location: Erdweis
(48.5167°N, 15.3500°E)
Time: 00:29:27
(UTC+00:00)

NOSS 2-2 (C) - Pass Details

Date: 25 January 2021
Orbit: 463 x 1745 km, 63.3° (Epoch: 03 March)

Event Time Altitude Azimuth Distance (km) Brightness Sun altitude
Rises 17:48:35 0° 320° (NW) 2,926 7.5 -20.1°
Reaches altitude 10° 17:50:49 10° 332° (NNW) 2,158 6.6 -20.5°
Maximum altitude 17:55:16 32° 36° (NE) 1,407 5.0 -21.2°
Enters shadow 17:55:32 32° 41° (NE) 1,424 5.0 -21.2°
